Location: Famechon
(49.7599°N, 2.0615°E)
Time: 23:12:19
(UTC+00:00)

Cosmos 1461 - Pass Details

Date: 03 February 2023
Orbit: 491 x 643 km, 65.0° (Epoch: 01 April)

Event Time Altitude Azimuth Distance (km) Brightness Sun altitude
Rises 19:15:50 0° 233° (SW) 2,764 7.2 -23.8°
Reaches altitude 10° 19:18:03 10° 238° (WSW) 1,897 6.3 -24.1°
Maximum altitude 19:22:14 52° 315° (NW) 750 3.6 -24.8°
Enters shadow 19:23:02 46° 353° (N) 823 3.7 -24.9°
